Вернуться в каталог

CZ-6A DEB

АктивенPO
NORAD 60714·DEBRIS·🇨🇳 China

Запущен Aug 6, 2024 с Taiyuan Satellite Launch Center

Loading…

Ближайшие Пролёты (ближайшие 24 часа)

TLE

СвежийSource: Space-Track

Эпоха: Sep 14, 2026, 06:53 UTC

1 60714U 24140DT  26257.28706165  .00001142  00000-0  26352-3 0  9995
2 60714  89.0368 264.0191 0105423 346.9751  12.8737 14.51245965110616

Отслеживайте CZ-6A DEB в реальном времени с AllMySat

Download on the App Store